sat.trackr.live / text

‹ back to catalog

STARLINK-35770

NORAD 66977 · 2025-288U

PAYLOAD ACTIVE UNKNOWN

§ Identity

Operator
Country
US
Launch date
2025-12-08
Launch site
AFETR
Launch vehicle
Mass (kg)
RCS (m²)

Purposes: comms

External: N2YO · Heavens-Above · Gunter

§ Orbital elements

Epoch: 2026-09-20T08:04:32.921760Z

Period
94.27 min
Inclination
43.0021°
Eccentricity
0.0001382
Mean motion
15.27607522 rev/d
Perigee alt
482.0 km
Apogee alt
483.9 km
Semi-major
6,861.1 km
B*
4.6355e-4
RAAN
4.4051°
Arg perigee
272.4191°
Mean anomaly
87.6502°
Rev number
4,505

§ Raw data

STARLINK-357701 66977U 25288U   26263.33649215  .00012526  00000+0  46355-3 0  99932 66977  43.0021   4.4051 0001382 272.4191  87.6502 15.27607522 45050

JSON: /api/v1/satellites/66977 · /tle

For live sub-satellite position, see the globe view (requires WebGL).

§ Visibility from observer

Set your observer location to see the next 7 days of passes ≥ 10°. The values pass through the URL so the page stays shareable.

No JS? Fill the form by hand. The geolocation button needs JavaScript.